Time,TemperatureF,DewpointF,PressureIn,WindDirection,WindDirectionDegrees,WindSpeedMPH,WindSpeedGustMPH,Humidity,HourlyPrecipIn,Conditions,Clouds,dailyrainin,SolarRadiationWatts/m^2,SoftwareType,DateUTC
2015-08-28 00:00:00,72.0,70.5,29.89,NE,49,0.0,0.0,95,0.00,,,0.00,0,Wunderground v.1.15,2015-08-28 04:00:00,
2015-08-28 00:05:00,71.9,70.4,29.89,NE,49,0.0,0.0,95,0.00,,,0.00,0,Wunderground v.1.15,2015-08-28 04:05:00,
2015-08-28 00:15:00,71.9,70.4,29.88,NE,49,0.0,0.0,95,0.00,,,0.00,0,Wunderground v.1.15,2015-08-28 04:15:00,
2015-08-28 00:20:00,71.9,70.4,29.88,NE,49,0.0,0.0,95,0.00,,,0.00,0,Wunderground v.1.15,2015-08-28 04:20:00,
2015-08-28 00:25:00,71.9,70.4,29.88,NE,49,0.0,0.0,95,0.00,,,0.00,0,Wunderground v.1.15,2015-08-28 04:25:00,
2015-08-28 00:30:00,72.0,70.5,29.87,NE,49,0.0,0.0,95,0.00,,,0.00,0,Wunderground v.1.15,2015-08-28 04:30:00,
2015-08-28 00:40:00,72.0,70.5,29.87,NE,49,0.0,0.0,95,0.00,,,0.00,0,Wunderground v.1.15,2015-08-28 04:40:00,
2015-08-28 00:45:00,72.0,70.5,29.87,NE,49,0.0,0.0,95,0.00,,,0.00,0,Wunderground v.1.15,2015-08-28 04:45:00,
2015-08-28 00:55:00,71.9,70.7,29.87,NE,49,0.0,0.0,96,0.00,,,0.00,0,Wunderground v.1.15,2015-08-28 04:55:00,
2015-08-28 01:00:00,72.0,70.8,29.86,NE,49,0.0,0.0,96,0.00,,,0.00,0,Wunderground v.1.15,2015-08-28 05:00:00,
2015-08-28 01:10:00,72.1,70.9,29.86,NE,49,0.0,0.0,96,0.00,,,0.00,0,Wunderground v.1.15,2015-08-28 05:10:00,
2015-08-28 01:15:00,72.2,71.0,29.86,NE,49,0.0,0.0,96,0.00,,,0.00,0,Wunderground v.1.15,2015-08-28 05:15:00,
2015-08-28 01:20:00,72.3,71.1,29.86,NE,49,0.0,0.0,96,0.00,,,0.00,0,Wunderground v.1.15,2015-08-28 05:20:00,
2015-08-28 01:30:00,72.3,71.1,29.86,NE,49,0.0,0.0,96,0.00,,,0.00,0,Wunderground v.1.15,2015-08-28 05:30:00,
2015-08-28 01:40:00,72.3,71.1,29.85,NE,49,0.0,0.0,96,0.00,,,0.00,0,Wunderground v.1.15,2015-08-28 05:40:00,
2015-08-28 01:45:00,72.2,71.0,29.85,NE,49,0.0,0.0,96,0.00,,,0.00,0,Wunderground v.1.15,2015-08-28 05:45:00,
2015-08-28 01:50:00,72.2,71.0,29.85,NE,49,0.0,0.0,96,0.00,,,0.00,0,Wunderground v.1.15,2015-08-28 05:50:00,
2015-08-28 01:55:00,72.1,70.9,29.85,NE,49,0.0,0.0,96,0.00,,,0.00,0,Wunderground v.1.15,2015-08-28 05:55:00,
2015-08-28 02:00:00,72.2,71.0,29.85,NE,49,0.0,0.0,96,0.00,,,0.00,0,Wunderground v.1.15,2015-08-28 06:00:00,
2015-08-28 02:10:00,72.1,70.9,29.85,NE,49,0.0,0.0,96,0.00,,,0.00,0,Wunderground v.1.15,2015-08-28 06:10:00,
2015-08-28 02:15:00,72.2,71.0,29.85,NE,49,0.0,0.0,96,0.00,,,0.00,0,Wunderground v.1.15,2015-08-28 06:15:00,
2015-08-28 02:20:00,72.2,71.0,29.85,NE,49,0.0,0.0,96,0.00,,,0.00,0,Wunderground v.1.15,2015-08-28 06:20:00,
2015-08-28 02:25:00,72.1,70.9,29.85,NE,49,0.0,0.0,96,0.00,,,0.00,0,Wunderground v.1.15,2015-08-28 06:25:00,
2015-08-28 02:30:00,72.1,70.9,29.85,NE,49,0.0,0.0,96,0.00,,,0.00,0,Wunderground v.1.15,2015-08-28 06:30:00,
2015-08-28 02:40:00,72.0,70.8,29.84,NE,49,0.0,0.0,96,0.00,,,0.00,0,Wunderground v.1.15,2015-08-28 06:40:00,
2015-08-28 02:45:00,72.0,70.8,29.84,NE,49,0.0,0.0,96,0.00,,,0.00,0,Wunderground v.1.15,2015-08-28 06:45:00,
2015-08-28 02:50:00,71.9,70.7,29.84,NE,49,0.0,0.0,96,0.00,,,0.00,0,Wunderground v.1.15,2015-08-28 06:50:00,
2015-08-28 02:55:00,71.9,70.7,29.84,NE,49,0.0,0.0,96,0.00,,,0.00,0,Wunderground v.1.15,2015-08-28 06:55:00,
2015-08-28 03:00:00,71.9,70.7,29.84,NE,49,0.0,0.0,96,0.00,,,0.00,0,Wunderground v.1.15,2015-08-28 07:00:00,
2015-08-28 03:10:00,71.9,70.7,29.84,NE,49,0.0,0.0,96,0.00,,,0.00,0,Wunderground v.1.15,2015-08-28 07:10:00,
2015-08-28 03:20:00,72.0,70.8,29.83,NE,49,0.0,0.0,96,0.00,,,0.00,0,Wunderground v.1.15,2015-08-28 07:20:00,
2015-08-28 03:25:00,72.0,70.8,29.83,NE,49,0.0,0.0,96,0.00,,,0.00,0,Wunderground v.1.15,2015-08-28 07:25:00,
2015-08-28 03:30:00,72.0,70.8,29.83,NE,49,0.0,0.0,96,0.00,,,0.00,0,Wunderground v.1.15,2015-08-28 07:30:00,
2015-08-28 03:40:00,71.9,70.7,29.83,NE,49,0.0,0.0,96,0.00,,,0.00,0,Wunderground v.1.15,2015-08-28 07:40:00,
2015-08-28 03:50:00,71.9,71.0,29.83,NE,49,0.0,0.0,97,0.00,,,0.00,0,Wunderground v.1.15,2015-08-28 07:50:00,
2015-08-28 03:55:00,71.9,71.0,29.83,NE,49,0.0,0.0,97,0.00,,,0.00,0,Wunderground v.1.15,2015-08-28 07:55:00,
2015-08-28 04:00:00,71.9,71.0,29.83,NE,49,0.0,0.0,97,0.00,,,0.00,0,Wunderground v.1.15,2015-08-28 08:00:00,
2015-08-28 04:05:00,71.9,71.0,29.83,NE,49,0.0,0.0,97,0.00,,,0.00,0,Wunderground v.1.15,2015-08-28 08:05:00,
2015-08-28 04:15:00,72.0,71.1,29.82,NE,49,0.0,0.0,97,0.00,,,0.00,0,Wunderground v.1.15,2015-08-28 08:15:00,
2015-08-28 04:25:00,72.1,71.2,29.82,NE,49,0.0,0.0,97,0.00,,,0.00,0,Wunderground v.1.15,2015-08-28 08:25:00,
2015-08-28 04:30:00,72.1,71.2,29.82,NE,49,0.0,0.0,97,0.00,,,0.00,0,Wunderground v.1.15,2015-08-28 08:30:00,
2015-08-28 04:40:00,72.1,71.2,29.83,NE,49,0.0,0.0,97,0.00,,,0.00,0,Wunderground v.1.15,2015-08-28 08:40:00,
2015-08-28 04:45:00,72.1,71.2,29.83,NE,49,0.0,0.0,97,0.00,,,0.00,0,Wunderground v.1.15,2015-08-28 08:45:00,
2015-08-28 04:50:00,72.1,71.2,29.83,NE,49,0.0,0.0,97,0.00,,,0.00,0,Wunderground v.1.15,2015-08-28 08:50:00,
2015-08-28 05:00:00,72.1,71.2,29.82,NE,49,0.0,0.0,97,0.00,,,0.00,0,Wunderground v.1.15,2015-08-28 09:00:00,
2015-08-28 05:05:00,72.1,71.2,29.83,NE,49,0.0,0.0,97,0.00,,,0.00,0,Wunderground v.1.15,2015-08-28 09:05:00,
2015-08-28 05:15:00,72.1,71.2,29.83,NE,49,0.0,0.0,97,0.00,,,0.00,0,Wunderground v.1.15,2015-08-28 09:15:00,
2015-08-28 05:20:00,72.0,71.1,29.83,NE,49,0.0,0.0,97,0.00,,,0.00,0,Wunderground v.1.15,2015-08-28 09:20:00,
2015-08-28 05:25:00,72.0,71.1,29.83,NE,49,0.0,0.0,97,0.00,,,0.00,0,Wunderground v.1.15,2015-08-28 09:25:00,
2015-08-28 05:35:00,72.0,71.1,29.83,NE,49,0.0,0.0,97,0.00,,,0.00,0,Wunderground v.1.15,2015-08-28 09:35:00,
2015-08-28 05:40:00,72.0,71.1,29.84,NE,49,0.0,0.0,97,0.00,,,0.00,0,Wunderground v.1.15,2015-08-28 09:40:00,
2015-08-28 05:50:00,71.9,71.0,29.84,NE,49,0.0,0.0,97,0.00,,,0.00,0,Wunderground v.1.15,2015-08-28 09:50:00,
2015-08-28 05:55:00,71.9,71.0,29.84,NE,49,0.0,0.0,97,0.00,,,0.00,0,Wunderground v.1.15,2015-08-28 09:55:00,
2015-08-28 06:00:00,71.8,70.9,29.84,NE,49,0.0,0.0,97,0.00,,,0.00,0,Wunderground v.1.15,2015-08-28 10:00:00,
2015-08-28 06:10:00,71.8,70.9,29.84,NE,49,0.0,0.0,97,0.00,,,0.00,0,Wunderground v.1.15,2015-08-28 10:10:00,
2015-08-28 06:15:00,71.8,70.9,29.84,NE,49,0.0,0.0,97,0.00,,,0.00,0,Wunderground v.1.15,2015-08-28 10:15:00,
2015-08-28 06:25:00,71.8,70.9,29.84,NE,49,0.0,0.0,97,0.00,,,0.00,0,Wunderground v.1.15,2015-08-28 10:25:00,
2015-08-28 06:30:00,71.8,70.9,29.85,NE,49,0.0,0.0,97,0.00,,,0.00,0,Wunderground v.1.15,2015-08-28 10:30:00,
2015-08-28 06:35:00,71.7,70.8,29.85,NE,49,0.0,0.0,97,0.00,,,0.00,0,Wunderground v.1.15,2015-08-28 10:35:00,
2015-08-28 06:45:00,71.7,70.8,29.85,NE,49,0.0,0.0,97,0.00,,,0.00,0,Wunderground v.1.15,2015-08-28 10:45:00,
2015-08-28 06:55:00,71.7,70.8,29.85,NE,49,0.0,0.0,97,0.00,,,0.00,0,Wunderground v.1.15,2015-08-28 10:55:00,
2015-08-28 07:00:00,71.7,70.8,29.85,NE,49,0.0,0.0,97,0.00,,,0.00,5,Wunderground v.1.15,2015-08-28 11:00:00,
2015-08-28 07:05:00,71.7,70.8,29.86,NE,49,0.0,0.0,97,0.00,,,0.00,12,Wunderground v.1.15,2015-08-28 11:05:00,
2015-08-28 07:10:00,71.7,70.8,29.86,NE,49,0.0,0.0,97,0.00,,,0.00,19,Wunderground v.1.15,2015-08-28 11:10:00,
2015-08-28 07:20:00,71.8,70.9,29.86,NE,49,0.0,0.0,97,0.00,,,0.00,32,Wunderground v.1.15,2015-08-28 11:20:00,
2015-08-28 07:35:00,72.2,71.3,29.87,NE,49,0.0,0.0,97,0.00,,,0.00,60,Wunderground v.1.15,2015-08-28 11:35:00,
2015-08-28 07:40:00,72.5,71.6,29.87,NE,49,0.0,0.0,97,0.00,,,0.00,72,Wunderground v.1.15,2015-08-28 11:40:00,
2015-08-28 07:50:00,73.2,72.6,29.88,NE,49,0.0,0.0,98,0.00,,,0.00,125,Wunderground v.1.15,2015-08-28 11:50:00,
2015-08-28 08:00:00,74.0,73.4,29.88,NE,49,0.0,0.0,98,0.00,,,0.00,91,Wunderground v.1.15,2015-08-28 12:00:00,
2015-08-28 08:05:00,74.3,73.7,29.88,NE,49,0.0,0.0,98,0.00,,,0.01,109,Wunderground v.1.15,2015-08-28 12:05:00,
2015-08-28 08:10:00,74.6,74.0,29.87,NE,49,0.0,0.0,98,0.00,,,0.01,174,Wunderground v.1.15,2015-08-28 12:10:00,
2015-08-28 08:20:00,75.4,74.8,29.88,NE,49,0.0,0.0,98,0.00,,,0.01,213,Wunderground v.1.15,2015-08-28 12:20:00,
2015-08-28 08:25:00,76.0,75.4,29.88,NE,49,0.0,0.0,98,0.00,,,0.01,246,Wunderground v.1.15,2015-08-28 12:25:00,
2015-08-28 08:35:00,76.6,76.0,29.88,NE,49,0.0,0.0,98,0.00,,,0.01,257,Wunderground v.1.15,2015-08-28 12:35:00,
2015-08-28 08:45:00,77.7,77.1,29.88,NE,49,0.0,0.0,98,0.00,,,0.01,251,Wunderground v.1.15,2015-08-28 12:45:00,
2015-08-28 08:50:00,77.5,76.6,29.88,NE,49,0.0,0.0,97,0.00,,,0.01,264,Wunderground v.1.15,2015-08-28 12:50:00,
2015-08-28 08:55:00,78.0,77.1,29.88,NE,49,0.0,0.0,97,0.00,,,0.01,297,Wunderground v.1.15,2015-08-28 12:55:00,
2015-08-28 09:00:00,78.6,77.7,29.88,NE,49,0.0,0.0,97,0.00,,,0.01,295,Wunderground v.1.15,2015-08-28 13:00:00,
2015-08-28 09:10:00,79.3,78.4,29.88,NE,49,0.0,0.0,97,0.00,,,0.01,297,Wunderground v.1.15,2015-08-28 13:10:00,
2015-08-28 09:15:00,79.7,78.8,29.88,NE,49,0.0,0.0,97,0.00,,,0.01,297,Wunderground v.1.15,2015-08-28 13:15:00,
2015-08-28 09:20:00,80.0,79.1,29.88,NE,49,0.0,0.0,97,0.00,,,0.01,290,Wunderground v.1.15,2015-08-28 13:20:00,
2015-08-28 09:25:00,80.5,79.3,29.89,NE,52,0.0,0.0,96,0.00,,,0.01,211,Wunderground v.1.15,2015-08-28 13:25:00,
2015-08-28 09:30:00,81.0,79.4,29.89,NE,52,0.0,0.0,95,0.00,,,0.01,227,Wunderground v.1.15,2015-08-28 13:30:00,
2015-08-28 09:40:00,81.9,79.0,29.89,ENE,70,0.0,1.0,91,0.00,,,0.01,357,Wunderground v.1.15,2015-08-28 13:40:00,
2015-08-28 09:45:00,82.4,78.8,29.89,ENE,71,0.0,1.0,89,0.00,,,0.01,425,Wunderground v.1.15,2015-08-28 13:45:00,
2015-08-28 09:50:00,83.1,78.8,29.89,ESE,113,0.0,0.0,87,0.00,,,0.01,431,Wunderground v.1.15,2015-08-28 13:50:00,
2015-08-28 09:55:00,83.8,78.8,29.90,SE,140,0.0,0.0,85,0.00,,,0.01,434,Wunderground v.1.15,2015-08-28 13:55:00,
2015-08-28 10:05:00,85.5,78.6,29.90,WSW,238,0.0,0.0,80,0.00,,,0.01,462,Wunderground v.1.15,2015-08-28 14:05:00,
2015-08-28 10:10:00,86.1,78.8,29.90,SW,217,0.0,0.0,79,0.00,,,0.01,339,Wunderground v.1.15,2015-08-28 14:10:00,
2015-08-28 10:20:00,86.7,78.2,29.90,WSW,250,1.0,2.0,76,0.00,,,0.01,357,Wunderground v.1.15,2015-08-28 14:20:00,
2015-08-28 10:25:00,87.1,78.2,29.90,SE,131,1.0,2.0,75,0.00,,,0.01,740,Wunderground v.1.15,2015-08-28 14:25:00,
2015-08-28 10:35:00,88.8,77.3,29.90,ESE,122,1.0,2.0,69,0.00,,,0.01,740,Wunderground v.1.15,2015-08-28 14:35:00,
2015-08-28 10:40:00,89.2,77.7,29.89,ESE,103,2.0,3.0,69,0.00,,,0.01,731,Wunderground v.1.15,2015-08-28 14:40:00,
2015-08-28 10:45:00,89.7,77.7,29.89,East,100,2.0,3.0,68,0.00,,,0.01,698,Wunderground v.1.15,2015-08-28 14:45:00,
2015-08-28 10:55:00,90.8,77.9,29.89,West,262,1.0,3.0,66,0.00,,,0.01,664,Wunderground v.1.15,2015-08-28 14:55:00,
2015-08-28 11:00:00,90.6,77.2,29.90,SW,235,2.0,2.0,65,0.00,,,0.01,510,Wunderground v.1.15,2015-08-28 15:00:00,
2015-08-28 11:05:00,90.5,77.6,29.90,SW,215,1.0,2.0,66,0.00,,,0.01,473,Wunderground v.1.15,2015-08-28 15:05:00,
2015-08-28 11:10:00,90.2,76.8,29.90,WSW,256,1.0,1.0,65,0.00,,,0.01,478,Wunderground v.1.15,2015-08-28 15:10:00,
2015-08-28 11:15:00,90.4,77.5,29.90,SE,129,1.0,1.0,66,0.00,,,0.01,459,Wunderground v.1.15,2015-08-28 15:15:00,
2015-08-28 11:25:00,90.7,77.3,29.90,SSE,155,0.0,1.0,65,0.00,,,0.01,448,Wunderground v.1.15,2015-08-28 15:25:00,
2015-08-28 11:35:00,91.6,77.7,29.90,ESE,112,0.0,0.0,64,0.00,,,0.01,489,Wunderground v.1.15,2015-08-28 15:35:00,
2015-08-28 11:40:00,91.7,77.8,29.90,ESE,113,0.0,0.0,64,0.00,,,0.01,468,Wunderground v.1.15,2015-08-28 15:40:00,
2015-08-28 11:45:00,92.0,77.1,29.90,South,172,0.0,0.0,62,0.00,,,0.01,446,Wunderground v.1.15,2015-08-28 15:45:00,
2015-08-28 11:55:00,92.1,76.7,29.90,SSW,208,0.0,0.0,61,0.00,,,0.01,325,Wunderground v.1.15,2015-08-28 15:55:00,
2015-08-28 12:00:00,92.2,76.8,29.90,SSW,208,0.0,0.0,61,0.00,,,0.01,352,Wunderground v.1.15,2015-08-28 16:00:00,
2015-08-28 12:10:00,91.8,77.9,29.90,SE,128,0.0,0.0,64,0.00,,,0.02,332,Wunderground v.1.15,2015-08-28 16:10:00,
2015-08-28 12:15:00,91.6,77.7,29.89,SE,124,0.0,0.0,64,0.00,,,0.02,396,Wunderground v.1.15,2015-08-28 16:15:00,
2015-08-28 12:25:00,91.5,77.6,29.89,SSW,212,1.0,1.0,64,0.00,,,0.02,533,Wunderground v.1.15,2015-08-28 16:25:00,
2015-08-28 12:35:00,91.3,74.4,29.89,South,189,1.0,1.0,58,0.00,,,0.02,450,Wunderground v.1.15,2015-08-28 16:35:00,
2015-08-28 12:45:00,91.6,74.7,29.89,SE,143,1.0,1.0,58,0.00,,,0.02,791,Wunderground v.1.15,2015-08-28 16:45:00,
2015-08-28 12:50:00,92.0,74.6,29.89,ESE,122,1.0,3.0,57,0.00,,,0.02,814,Wunderground v.1.15,2015-08-28 16:50:00,
2015-08-28 12:55:00,92.5,75.0,29.89,SSE,157,1.0,3.0,57,0.00,,,0.02,842,Wunderground v.1.15,2015-08-28 16:55:00,
2015-08-28 13:00:00,92.8,74.8,29.89,SSW,196,1.0,1.0,56,0.00,,,0.02,868,Wunderground v.1.15,2015-08-28 17:00:00,
2015-08-28 13:05:00,93.7,75.6,29.89,SW,221,1.0,1.0,56,0.00,,,0.02,761,Wunderground v.1.15,2015-08-28 17:05:00,
2015-08-28 13:15:00,94.9,75.7,29.89,South,183,1.0,1.0,54,0.00,,,0.02,647,Wunderground v.1.15,2015-08-28 17:15:00,
2015-08-28 13:20:00,95.2,75.4,29.89,ESE,123,1.0,1.0,53,0.00,,,0.02,315,Wunderground v.1.15,2015-08-28 17:20:00,
2015-08-28 13:25:00,94.8,75.6,29.90,SW,236,1.0,1.0,54,0.00,,,0.02,262,Wunderground v.1.15,2015-08-28 17:25:00,
2015-08-28 13:30:00,94.3,75.1,29.89,SW,235,1.0,1.0,54,0.00,,,0.02,236,Wunderground v.1.15,2015-08-28 17:30:00,
2015-08-28 13:40:00,91.9,74.5,29.89,ENE,66,2.0,6.0,57,0.00,,,0.02,218,Wunderground v.1.15,2015-08-28 17:40:00,
2015-08-28 13:45:00,89.0,73.8,29.89,East,98,4.0,6.0,61,0.00,,,0.02,221,Wunderground v.1.15,2015-08-28 17:45:00,
2015-08-28 13:55:00,85.1,71.1,29.89,NE,43,6.0,7.0,63,0.00,,,0.02,338,Wunderground v.1.15,2015-08-28 17:55:00,
2015-08-28 14:00:00,84.0,71.4,29.89,North,359,6.0,6.0,66,0.00,,,0.02,392,Wunderground v.1.15,2015-08-28 18:00:00,
2015-08-28 14:10:00,82.4,70.8,29.89,NNE,21,7.0,7.0,68,0.00,,,0.02,480,Wunderground v.1.15,2015-08-28 18:10:00,
2015-08-28 14:15:00,82.2,71.9,29.89,NNE,31,6.0,7.0,71,0.00,,,0.02,383,Wunderground v.1.15,2015-08-28 18:15:00,
2015-08-28 14:20:00,82.2,71.0,29.88,NE,45,6.0,6.0,69,0.00,,,0.02,309,Wunderground v.1.15,2015-08-28 18:20:00,
2015-08-28 14:30:00,82.0,71.2,29.89,ENE,75,6.0,10.0,70,0.00,,,0.02,227,Wunderground v.1.15,2015-08-28 18:30:00,
2015-08-28 14:35:00,81.8,70.6,29.89,NE,46,6.0,10.0,69,0.00,,,0.02,169,Wunderground v.1.15,2015-08-28 18:35:00,
2015-08-28 14:45:00,81.0,71.1,29.90,East,94,6.0,6.0,72,0.00,,,0.02,107,Wunderground v.1.15,2015-08-28 18:45:00,
2015-08-28 14:50:00,80.4,71.3,29.89,East,89,5.0,5.0,74,0.00,,,0.02,114,Wunderground v.1.15,2015-08-28 18:50:00,
2015-08-28 14:55:00,79.1,72.8,29.89,ENE,58,4.0,8.0,81,0.00,,,0.02,188,Wunderground v.1.15,2015-08-28 18:55:00,
2015-08-28 15:05:00,76.8,72.6,29.88,East,96,3.0,4.0,87,0.00,,,0.02,301,Wunderground v.1.15,2015-08-28 19:05:00,
2015-08-28 15:10:00,76.5,73.0,29.87,ENE,72,2.0,4.0,89,0.00,,,0.02,232,Wunderground v.1.15,2015-08-28 19:10:00,
2015-08-28 15:20:00,76.0,72.9,29.86,East,82,3.0,5.0,90,0.00,,,0.02,165,Wunderground v.1.15,2015-08-28 19:20:00,
2015-08-28 15:25:00,75.5,72.4,29.86,ENE,76,3.0,5.0,90,0.00,,,0.02,216,Wunderground v.1.15,2015-08-28 19:25:00,
2015-08-28 15:30:00,75.6,72.8,29.86,East,91,3.0,3.0,91,0.00,,,0.02,214,Wunderground v.1.15,2015-08-28 19:30:00,
2015-08-28 15:40:00,75.8,73.3,29.85,ESE,102,3.0,5.0,92,0.00,,,0.02,278,Wunderground v.1.15,2015-08-28 19:40:00,
2015-08-28 15:50:00,76.4,73.9,29.85,ENE,72,4.0,4.0,92,0.00,,,0.02,888,Wunderground v.1.15,2015-08-28 19:50:00,
2015-08-28 15:55:00,76.8,74.3,29.84,ESE,103,4.0,6.0,92,0.00,,,0.02,838,Wunderground v.1.15,2015-08-28 19:55:00,
2015-08-28 16:00:00,77.5,74.0,29.84,ESE,106,5.0,5.0,89,0.00,,,0.02,814,Wunderground v.1.15,2015-08-28 20:00:00,
2015-08-28 16:05:00,79.1,75.6,29.85,NE,51,5.0,5.0,89,0.00,,,0.02,805,Wunderground v.1.15,2015-08-28 20:05:00,
2015-08-28 16:15:00,81.3,76.7,29.86,NE,45,7.0,9.0,86,0.00,,,0.02,928,Wunderground v.1.15,2015-08-28 20:15:00,
2015-08-28 16:25:00,82.2,76.2,29.86,NNE,28,8.0,8.0,82,0.00,,,0.02,700,Wunderground v.1.15,2015-08-28 20:25:00,
2015-08-28 16:35:00,83.1,77.0,29.87,East,98,6.0,6.0,82,0.00,,,0.02,589,Wunderground v.1.15,2015-08-28 20:35:00,
2015-08-28 16:45:00,83.1,75.9,29.87,East,92,5.0,5.0,79,0.00,,,0.02,439,Wunderground v.1.15,2015-08-28 20:45:00,
2015-08-28 16:50:00,83.1,75.5,29.87,East,81,6.0,6.0,78,0.00,,,0.02,355,Wunderground v.1.15,2015-08-28 20:50:00,
2015-08-28 16:55:00,82.9,74.9,29.86,NE,52,7.0,7.0,77,0.00,,,0.02,236,Wunderground v.1.15,2015-08-28 20:55:00,
2015-08-28 17:00:00,82.6,74.7,29.86,ESE,108,7.0,7.0,77,0.00,,,0.02,128,Wunderground v.1.15,2015-08-28 21:00:00,
2015-08-28 17:05:00,82.4,75.6,29.86,East,85,6.0,7.0,80,0.00,,,0.02,81,Wunderground v.1.15,2015-08-28 21:05:00,
2015-08-28 17:10:00,82.0,75.2,29.86,ENE,65,6.0,6.0,80,0.00,,,0.02,97,Wunderground v.1.15,2015-08-28 21:10:00,
2015-08-28 17:20:00,81.4,74.6,29.86,East,87,6.0,6.0,80,0.00,,,0.02,95,Wunderground v.1.15,2015-08-28 21:20:00,
2015-08-28 17:25:00,81.4,74.6,29.86,ENE,59,6.0,6.0,80,0.00,,,0.02,95,Wunderground v.1.15,2015-08-28 21:25:00,
2015-08-28 17:30:00,81.3,74.9,29.86,ESE,102,4.0,4.0,81,0.00,,,0.02,81,Wunderground v.1.15,2015-08-28 21:30:00,
2015-08-28 17:35:00,81.3,74.5,29.86,East,90,4.0,4.0,80,0.00,,,0.02,69,Wunderground v.1.15,2015-08-28 21:35:00,
2015-08-28 17:40:00,81.3,74.5,29.87,East,97,4.0,4.0,80,0.00,,,0.02,74,Wunderground v.1.15,2015-08-28 21:40:00,
2015-08-28 17:50:00,81.1,74.3,29.87,East,93,5.0,5.0,80,0.00,,,0.02,63,Wunderground v.1.15,2015-08-28 21:50:00,
2015-08-28 17:55:00,81.0,74.6,29.87,East,96,5.0,5.0,81,0.00,,,0.02,86,Wunderground v.1.15,2015-08-28 21:55:00,
2015-08-28 18:00:00,80.9,74.5,29.86,East,101,4.0,5.0,81,0.00,,,0.02,77,Wunderground v.1.15,2015-08-28 22:00:00,
2015-08-28 18:05:00,80.9,74.1,29.86,East,95,4.0,5.0,80,0.00,,,0.02,65,Wunderground v.1.15,2015-08-28 22:05:00,
2015-08-28 18:10:00,80.8,74.0,29.87,ENE,67,4.0,7.0,80,0.00,,,0.02,53,Wunderground v.1.15,2015-08-28 22:10:00,
2015-08-28 18:15:00,80.8,74.4,29.87,ENE,73,4.0,7.0,81,0.00,,,0.02,42,Wunderground v.1.15,2015-08-28 22:15:00,
2015-08-28 18:25:00,80.7,74.3,29.88,East,96,4.0,5.0,81,0.00,,,0.02,32,Wunderground v.1.15,2015-08-28 22:25:00,
2015-08-28 18:30:00,80.6,73.9,29.88,ENE,67,5.0,6.0,80,0.00,,,0.02,26,Wunderground v.1.15,2015-08-28 22:30:00,
2015-08-28 18:35:00,80.6,74.2,29.88,East,96,4.0,6.0,81,0.00,,,0.02,23,Wunderground v.1.15,2015-08-28 22:35:00,
2015-08-28 18:40:00,80.5,73.8,29.88,ESE,104,4.0,4.0,80,0.00,,,0.02,19,Wunderground v.1.15,2015-08-28 22:40:00,
2015-08-28 18:50:00,80.4,73.7,29.89,East,101,3.0,3.0,80,0.00,,,0.02,14,Wunderground v.1.15,2015-08-28 22:50:00,
2015-08-28 18:55:00,80.3,73.2,29.89,ESE,118,2.0,3.0,79,0.00,,,0.02,14,Wunderground v.1.15,2015-08-28 22:55:00,
2015-08-28 19:00:00,80.4,73.3,29.89,ESE,103,2.0,2.0,79,0.00,,,0.02,12,Wunderground v.1.15,2015-08-28 23:00:00,
2015-08-28 19:05:00,80.4,73.7,29.89,East,94,2.0,3.0,80,0.00,,,0.02,14,Wunderground v.1.15,2015-08-28 23:05:00,